Temperature
30 31 32 32 32 32 32 32 31 31 31 30 31 31 31 30 29 28 27 26 26 25 24 23 22 21 21 21 20 20 19 19 19 19 18 18 18 18 18 17 17 17 17 17
29 30 31 31 32 32 32 32 32 31 30 31 30 30 30 29 28 27 27 26 25 25 24 23 22 21 21 20 20 20 19 19 19 18 18 18 18 18 18 17 17 17 17 16
27 29 30 29 31 32 32 32 32 31 30 30 29 29 29 29 28 27 26 26 25 24 23 22 22 21 21 20 20 19 19 19 19 18 18 18 17 17 17 17 17 17 16 16
27 27 27 30 32 32 32 31 31 30 30 29 29 28 28 27 27 26 26 25 24 24 23 22 22 21 21 20 20 19 19 19 18 18 18 18 17 17 17 17 16 16 16 16
26 26 27 29 31 31 31 30 31 30 30 29 28 28 27 26 26 25 25 24 24 24 23 22 22 21 20 20 19 19 19 18 18 18 18 17 17 17 17 16 16 15 15 15
25 25 26 28 30 31 30 28 30 29 29 28 28 28 26 24 24 24 24 24 23 23 23 22 21 21 20 20 19 19 18 18 18 18 17 17 17 17 16 16 15 15 15 15
25 25 26 27 29 30 28 27 28 28 28 27 26 25 23 23 22 22 23 23 22 22 22 21 21 20 20 19 19 18 18 18 17 17 17 17 16 16 16 15 15 15 15 15
24 24 25 27 27 26 26 26 26 26 25 24 23 22 22 21 21 21 21 21 21 21 21 21 20 20 19 19 18 18 18 17 17 17 16 16 16 16 15 15 15 15 14 14
24 24 24 24 25 25 25 25 25 24 23 23 22 22 21 20 20 20 20 20 20 20 20 19 19 19 19 18 18 18 17 17 16 16 16 15 15 15 15 15 14 14 14 14
23 24 24 24 24 24 23 23 23 23 22 22 21 21 20 19 19 19 19 19 19 19 18 18 18 18 18 18 17 17 17 17 16 16 16 15 15 15 15 14 14 14 14 14
22 22 23 22 22 22 22 22 22 22 21 20 20 20 19 19 18 18 18 18 18 18 17 17 17 17 17 17 17 17 16 16 16 15 15 15 15 15 14 14 14 14 14 13
20 21 21 21 21 21 21 21 21 20 20 20 19 19 19 18 18 18 17 17 17 17 17 17 17 17 17 17 16 16 16 16 15 15 15 15 14 14 14 14 13 13 13 13
19 20 20 20 20 20 20 20 19 19 19 19 18 18 18 18 17 17 17 17 17 17 16 16 16 16 16 16 16 16 16 15 15 15 15 14 14 14 14 13 13 13 13 13
18 18 19 19 19 19 19 19 19 19 18 18 18 18 17 17 17 17 16 16 16 16 16 16 16 15 15 15 15 15 15 15 15 14 14 14 14 14 13 13 13 13 12 12
18 18 18 18 18 18 18 19 18 18 18 17 17 17 17 16 16 16 16 16 16 15 15 15 15 15 15 14 14 14 14 14 14 14 14 14 14 13 13 13 13 13 12 12
17 18 18 18 17 18 18 18 18 18 17 17 17 16 16 16 16 15 15 15 15 15 14 14 14 14 14 14 14 14 14 14 14 14 14 13 13 13 13 13 12 12 12 12
16 17 17 17 17 17 17 17 17 17 17 17 16 16 15 15 15 15 15 14 14 14 14 14 14 14 14 13 13 13 13 13 13 13 13 13 13 13 13 12 12 12 12 11
16 16 16 16 16 16 16 16 16 16 16 16 15 15 15 14 14 14 14 14 14 14 14 13 13 13 13 13 13 13 13 13 13 13 13 13 13 12 12 12 12 11 11 11
15 15 15 15 15 15 15 15 15 15 15 15 14 14 14 14 14 14 13 13 13 13 13 13 13 13 13 13 13 12 12 13 12 12 12 12 12 12 12 12 11 11 11 11
14 14 14 15 15 14 14 14 14 14 14 14 14 14 13 13 13 13 13 13 13 12 12 12 12 12 12 12 12 12 12 12 12 12 12 12 12 11 11 11 11 11 11 10
13 13 13 13 14 13 13 13 13 13 13 13 13 13 13 13 13 12 12 12 12 12 12 12 12 12 12 12 12 12 12 12 12 11 11 11 11 11 11 11 10 10 10 10
12 12 12 13 13 12 13 13 13 13 13 13 12 12 12 12 12 12 12 12 12 12 12 11 11 11 11 12 11 11 11 11 11 11 11 11 10 10 10 10 10 10 9 9
11 11 11 11 12 12 12 12 12 12 12 12 12 12 12 12 12 11 11 11 11 11 11 11 11 11 11 11 11 11 11 11 11 10 10 10 10 10 10 10 9 9 9 9
10 11 11 11 11 11 11 11 11 11 11 11 11 11 11 11 11 11 11 11 11 11 11 11 11 11 11 11 11 11 10 10 10 10 10 10 10 9 9 9 9 9 8 8
10 10 10 10 10 11 11 11 11 11 11 11 11 11 11 11 10 10 10 10 10 10 10 10 10 10 10 10 10 10 10 10 10 10 10 9 9 9 9 9 8 8 8 7
10 10 10 10 10 10 10 11 11 11 11 10 10 10 10 10 10 10 10 10 10 10 10 9 9 10 10 9 9 9 9 9 9 9 9 9 9 8 8 8 8 7 7 7
10 10 10 10 10 10 10 10 10 10 10 10 10 10 10 10 10 10 9 9 9 9 9 9 9 9 9 9 9 9 9 9 9 9 8 8 8 8 7 7 7 7 6 6
Wind_Speed
18 17 15 14 16 18 17 16 14 9 7 5 3 3 5 7 10 11 11 10 10 10 9 8 9 8 8 8 8 7 7 7 6 6 5 4 4 3 3 3 3 2 2 1
17 19 18 17 18 18 17 16 16 11 7 4 2 5 5 6 8 8 10 11 10 11 11 10 9 9 8 8 8 8 7 7 7 6 5 4 4 3 3 3 2 2 2 2
15 17 18 20 17 15 14 14 12 9 5 2 3 4 5 4 5 6 7 7 8 9 10 9 10 9 9 8 8 8 7 7 7 6 6 5 4 4 3 3 3 2 2 2
14 15 19 15 13 12 11 8 6 3 2 2 2 4 6 5 4 3 3 5 6 7 8 10 10 10 9 9 8 8 7 7 6 6 6 5 4 3 3 2 2 3 3 3
13 16 17 14 11 12 10 7 5 4 3 3 3 5 6 6 5 3 2 2 3 6 7 8 10 10 9 9 8 8 7 7 6 6 5 5 4 3 3 3 2 3 3 3
13 15 15 11 9 8 9 8 3 2 2 2 3 2 2 6 5 4 3 3 2 3 6 7 8 9 9 9 8 7 7 6 5 5 5 4 4 3 3 3 2 3 3 3
16 16 12 9 9 9 10 4 1 2 3 3 3 5 7 7 6 5 5 4 3 3 5 6 7 8 8 7 7 6 7 6 6 5 4 4 3 3 4 3 3 3 3 3
15 16 11 5 5 3 1 5 5 6 7 9 9 10 8 7 6 7 7 6 5 5 5 5 6 7 7 6 6 7 7 7 6 5 4 5 4 3 3 3 3 3 3 2
8 7 1 4 4 6 6 6 7 8 9 9 9 8 8 7 6 6 7 6 6 6 6 6 5 5 5 5 7 7 7 6 6 5 3 3 4 3 3 3 3 2 2 2
4 3 1 2 5 6 6 6 7 8 8 8 8 8 7 6 6 6 6 6 6 6 6 5 5 5 4 5 6 7 7 6 5 4 4 3 2 2 2 1 1 2 2 1
3 1 2 3 5 5 5 6 7 7 7 7 7 7 7 6 6 6 5 5 5 5 4 5 5 4 4 4 5 6 6 6 6 4 4 4 3 2 2 2 1 1 1 1
4 1 1 2 3 4 5 6 7 7 7 7 6 6 6 5 5 4 4 4 5 5 4 4 5 4 4 4 3 3 4 4 4 4 4 5 4 3 6 4 5 6 4 2
2 2 2 4 4 4 5 6 6 5 5 5 5 5 4 4 4 4 4 4 4 4 3 3 4 4 4 4 3 3 3 2 2 3 4 4 4 4 3 3 3 3 2 2
3 2 2 3 2 3 3 4 4 4 3 3 3 4 4 3 3 4 3 3 3 3 3 3 3 3 3 3 3 3 3 3 3 3 3 3 3 4 4 4 4 3 2 3
2 1 1 3 2 2 1 1 2 2 2 2 2 3 3 3 3 3 3 3 3 3 3 3 3 3 2 2 2 2 2 2 2 2 2 2 2 2 2 2 2 3 3 3
2 1 0 1 0 0 1 1 1 1 1 1 2 2 2 2 2 3 3 2 2 2 2 3 3 2 2 1 1 2 2 2 2 2 2 2 2 2 3 3 2 2 2 2
4 2 1 1 1 1 2 2 1 2 1 1 1 1 2 2 2 2 2 2 2 2 2 2 2 2 2 2 1 1 1 2 2 2 1 1 1 2 2 1 2 2 2 3
3 2 2 2 2 3 3 3 2 1 1 1 2 2 1 1 1 1 1 2 2 2 2 2 2 1 1 1 0 1 1 1 2 2 1 0 1 1 1 1 2 1 1 3
2 3 3 2 2 3 3 3 3 2 1 1 2 2 1 1 1 1 1 2 2 1 1 2 2 1 1 2 1 1 1 1 1 1 1 1 1 1 1 1 1 1 1 2
3 3 3 2 2 2 2 2 1 1 1 1 1 1 1 1 1 2 1 1 1 1 1 2 1 1 1 2 1 1 0 0 1 1 1 1 1 1 2 1 1 1 1 1
4 4 4 3 2 2 3 2 1 1 1 1 0 1 1 1 1 1 1 1 3 2 2 1 1 1 2 2 2 1 0 1 0 0 1 1 1 1 1 1 0 0 0 1
4 4 4 4 3 3 3 2 1 0 0 0 1 1 1 1 1 2 2 1 2 1 1 2 2 4 4 3 1 0 0 0 0 0 0 0 0 0 0 0 0 0 0 0
3 3 3 3 3 3 3 2 1 1 0 1 1 1 1 1 1 1 1 1 2 2 2 3 3 3 3 1 0 0 1 1 0 0 0 0 1 1 0 0 0 1 1 1
3 2 2 2 2 2 2 1 0 0 1 2 2 1 2 1 1 1 3 4 5 4 3 4 3 2 2 1 0 1 2 1 1 0 1 1 1 1 1 1 2 2 3 2
3 2 2 2 2 1 1 0 1 2 2 2 3 3 2 2 2 3 4 5 5 4 4 4 2 1 0 1 2 3 3 3 2 2 2 2 1 2 2 2 2 3 3 2
2 2 3 3 2 1 1 1 1 2 3 3 3 3 3 3 4 4 4 5 5 4 3 3 2 1 1 2 2 2 2 2 1 2 3 3 3 3 4 4 4 3 3 3
2 2 2 2 2 2 2 2 2 3 3 4 4 4 4 4 4 4 4 4 4 3 3 2 2 2 2 2 2 2 2 2 2 3 3 3 3 3 3 3 3 3 3 4
Wind_Direction
261 268 268 254 239 238 239 246 256 252 229 227 204 154 135 136 143 155 161 170 167 159 155 154 149 149 153 154 147 145 150 153 151 150 146 142 140 144 142 149 152 134 119 98
257 259 261 262 251 238 236 241 247 249 249 232 115 101 113 128 139 157 166 173 172 165 162 162 158 157 156 154 150 148 156 154 147 151 149 146 147 138 132 131 126 124 127 107
257 257 258 253 253 248 243 240 244 246 228 177 122 129 129 121 134 154 161 164 165 168 168 165 165 161 160 155 154 156 154 148 150 152 149 153 155 146 148 144 142 139 126 104
256 258 252 251 255 253 250 247 238 222 163 150 138 105 87 91 93 103 139 147 167 173 170 169 169 165 158 159 162 159 156 155 153 153 147 143 141 144 146 137 141 142 132 123
252 250 247 251 250 252 248 242 245 215 177 163 138 134 90 64 67 58 78 127 156 170 168 167 167 160 159 162 161 162 163 159 157 154 148 147 149 152 150 144 145 144 142 134
247 250 251 254 253 258 250 226 227 170 138 142 156 195 102 61 62 48 45 75 99 148 148 148 153 155 158 162 161 161 156 151 145 146 149 152 148 152 154 158 160 150 145 142
242 249 249 278 290 259 241 232 142 121 107 105 68 68 79 73 66 58 60 70 74 94 122 127 138 148 154 157 159 151 139 136 138 135 135 137 143 153 158 163 163 158 150 141
233 243 246 297 271 263 57 58 71 76 82 87 88 89 87 80 71 65 64 61 67 82 97 108 130 144 152 151 139 132 132 135 135 136 150 146 143 150 155 169 174 164 154 149
236 237 219 16 68 79 87 81 71 73 83 94 96 96 94 88 77 72 70 66 63 78 87 94 105 121 141 136 133 135 135 138 138 131 121 133 144 150 160 175 181 169 164 160
264 192 99 79 84 70 69 75 75 79 86 87 92 92 93 88 79 76 71 72 70 76 87 92 98 102 106 122 133 136 138 137 136 138 140 137 139 152 165 181 180 172 169 169
252 207 123 68 68 74 73 79 81 78 80 86 89 88 90 94 86 79 73 76 80 81 92 101 99 97 106 118 133 138 141 146 147 152 146 132 120 83 103 72 100 141 127 127
270 300 156 109 84 82 76 78 86 88 86 85 90 92 90 91 97 97 94 90 92 90 98 105 106 102 107 122 128 140 154 159 157 156 157 153 143 120 69 87 88 88 77 84
312 309 110 85 66 67 74 77 82 87 89 90 91 96 93 94 94 93 92 88 93 98 98 104 113 112 113 123 135 143 152 163 165 159 162 164 165 164 158 123 97 81 87 98
4 27 106 96 78 72 79 94 99 98 96 96 102 104 98 93 94 92 89 88 97 104 107 108 105 105 113 134 142 152 165 173 186 184 184 178 180 189 190 178 172 176 183 188
349 18 29 64 44 28 39 102 133 130 112 92 87 91 95 90 90 86 77 73 87 101 108 111 102 97 94 121 144 159 175 182 186 197 201 183 187 194 189 189 183 166 153 157
327 343 329 79 63 344 350 350 310 196 147 125 101 88 93 92 84 83 71 78 92 91 101 111 112 118 129 144 164 171 166 186 210 215 212 192 192 201 205 201 197 176 167 149
283 288 284 265 292 314 311 316 314 289 256 172 125 115 119 117 97 87 73 72 81 78 90 107 105 110 129 147 175 199 187 183 208 224 217 200 206 223 220 218 230 212 183 157
288 295 303 310 326 328 328 337 332 295 256 191 158 151 158 155 153 101 97 89 83 66 59 81 95 122 127 120 169 196 190 196 208 207 176 123 246 241 246 245 246 237 193 164
302 302 302 326 336 328 322 326 330 340 347 158 163 177 185 193 183 157 137 131 127 98 49 76 93 125 103 73 341 221 200 190 184 145 131 183 233 256 260 257 254 243 210 165
347 347 332 335 331 333 319 319 337 346 344 6 164 179 192 198 162 148 132 127 116 100 95 94 142 139 90 59 346 293 281 205 147 157 189 222 231 252 256 253 262 264 227 205
351 3 352 342 355 352 334 336 335 331 19 44 190 196 174 180 188 163 145 114 93 81 89 118 101 57 43 8 301 285 202 118 155 197 210 228 224 244 270 259 226 271 243 234
5 7 349 346 347 340 332 331 324 303 140 177 190 182 143 125 110 87 82 93 106 87 112 113 83 54 17 333 287 312 74 49 337 359 285 157 134 117 82 298 230 229 245 56
357 350 339 332 324 323 320 322 336 24 90 120 108 93 84 65 82 107 101 86 98 97 104 85 72 64 353 291 274 122 80 41 1 1 341 36 65 68 48 35 80 90 77 66
340 328 322 316 313 318 315 301 294 98 110 103 98 91 96 95 79 96 102 93 86 99 93 89 92 48 318 303 28 70 72 52 31 339 70 71 76 76 65 53 57 63 67 66
350 350 347 360 2 355 3 38 159 158 132 120 124 123 129 130 118 105 102 101 102 99 103 105 103 348 335 61 56 63 69 54 36 31 67 68 59 66 63 58 64 66 60 56
9 14 25 31 30 32 32 57 90 98 105 112 106 97 101 103 103 106 109 116 110 107 103 111 112 128 85 72 72 76 87 102 82 68 60 58 55 53 52 45 50 52 49 49
28 25 30 38 34 35 48 64 81 89 96 99 95 88 90 95 98 102 105 110 117 120 117 116 107 97 89 89 96 93 86 76 66 67 70 68 59 57 61 57 55 51 49 58
Height
1480 1473 1470 1472 1472 1472 1475 1478 1485 1483 1483 1484 1479 1480 1483 1486 1491 1496 1500 1505 1508 1511 1514 1517 1519 1521 1523 1525 1526 1528 1529 1531 1532 1533 1534 1535 1536 1537 1537 1538 1538 1538 1538 1538
1484 1475 1472 1473 1469 1468 1470 1471 1474 1477 1482 1478 1479 1482 1486 1488 1491 1495 1499 1503 1506 1509 1512 1515 1517 1519 1522 1524 1526 1527 1529 1530 1531 1533 1533 1534 1535 1536 1536 1536 1536 1536 1536 1536
1490 1478 1476 1481 1469 1466 1466 1465 1469 1478 1480 1479 1481 1484 1486 1488 1491 1495 1498 1502 1505 1508 1510 1512 1515 1517 1520 1523 1525 1527 1528 1529 1530 1531 1532 1533 1534 1534 1534 1534 1535 1535 1535 1535
1491 1489 1498 1475 1460 1460 1464 1466 1467 1471 1475 1478 1482 1485 1487 1489 1492 1495 1498 1500 1503 1506 1508 1510 1513 1516 1519 1521 1524 1525 1526 1527 1528 1530 1530 1531 1532 1532 1533 1533 1533 1533 1533 1533
1492 1492 1484 1470 1462 1462 1466 1470 1468 1470 1475 1478 1481 1484 1488 1491 1493 1496 1498 1500 1502 1504 1506 1508 1512 1515 1518 1520 1522 1523 1525 1525 1527 1528 1528 1529 1530 1530 1530 1531 1531 1532 1532 1532
1490 1494 1493 1475 1463 1462 1466 1474 1470 1472 1475 1479 1481 1485 1490 1493 1494 1496 1498 1499 1500 1502 1504 1507 1510 1513 1515 1518 1520 1521 1523 1524 1525 1526 1527 1527 1527 1528 1529 1529 1529 1530 1530 1531
1490 1490 1482 1470 1465 1464 1478 1480 1472 1474 1478 1480 1484 1488 1493 1494 1496 1497 1498 1499 1501 1502 1504 1506 1509 1511 1514 1516 1518 1519 1521 1522 1524 1524 1525 1525 1526 1526 1527 1527 1528 1528 1529 1529
1485 1489 1487 1472 1469 1472 1476 1474 1475 1477 1480 1484 1488 1491 1494 1496 1497 1498 1498 1500 1501 1502 1504 1506 1508 1511 1513 1515 1517 1518 1520 1521 1522 1523 1524 1524 1524 1524 1525 1526 1526 1527 1527 1527
1477 1480 1477 1475 1474 1475 1476 1478 1479 1481 1483 1486 1489 1492 1495 1497 1498 1499 1500 1501 1501 1503 1504 1506 1508 1510 1512 1514 1515 1517 1519 1520 1520 1521 1522 1523 1523 1523 1524 1525 1525 1525 1526 1526
1475 1475 1475 1476 1476 1477 1479 1481 1483 1484 1486 1488 1491 1493 1496 1498 1499 1500 1501 1502 1503 1504 1505 1506 1508 1510 1512 1513 1514 1515 1517 1518 1519 1520 1520 1521 1522 1523 1523 1524 1524 1524 1525 1525
1478 1477 1477 1479 1479 1481 1482 1484 1485 1487 1489 1491 1493 1495 1497 1499 1501 1502 1503 1504 1504 1505 1506 1507 1508 1509 1510 1512 1513 1515 1516 1517 1518 1519 1519 1520 1521 1522 1522 1523 1523 1524 1524 1524
1481 1479 1479 1481 1481 1483 1485 1486 1487 1489 1491 1493 1494 1497 1498 1500 1502 1503 1504 1505 1505 1506 1507 1508 1508 1509 1510 1511 1513 1514 1516 1516 1517 1517 1518 1519 1520 1521 1521 1522 1522 1523 1523 1523
1481 1480 1480 1481 1484 1486 1487 1488 1490 1491 1492 1494 1496 1498 1499 1500 1502 1503 1504 1505 1505 1506 1507 1507 1508 1508 1509 1510 1512 1513 1514 1515 1515 1516 1517 1518 1518 1519 1519 1520 1521 1521 1521 1522
1482 1481 1482 1483 1485 1487 1489 1490 1491 1492 1494 1495 1496 1498 1499 1500 1502 1503 1504 1504 1505 1505 1506 1506 1507 1507 1508 1509 1510 1511 1512 1513 1514 1515 1516 1517 1517 1518 1518 1518 1518 1519 1520 1520
1483 1483 1484 1485 1487 1489 1490 1491 1492 1493 1495 1496 1497 1498 1499 1500 1501 1502 1503 1503 1504 1504 1505 1505 1505 1506 1507 1508 1508 1509 1510 1511 1512 1514 1515 1515 1516 1517 1517 1517 1517 1517 1517 1518
1484 1485 1486 1487 1488 1489 1490 1491 1492 1493 1494 1496 1497 1498 1499 1500 1501 1501 1502 1503 1503 1503 1504 1504 1505 1505 1506 1506 1507 1508 1508 1510 1511 1512 1513 1514 1514 1515 1515 1515 1515 1515 1515 1515
1486 1486 1487 1487 1488 1489 1490 1491 1492 1493 1493 1495 1496 1497 1498 1499 1499 1500 1501 1502 1502 1502 1503 1503 1504 1504 1504 1505 1505 1506 1507 1508 1509 1510 1511 1512 1512 1513 1514 1514 1514 1514 1513 1513
1486 1487 1487 1487 1488 1489 1490 1490 1491 1491 1492 1493 1495 1495 1496 1497 1498 1499 1499 1500 1500 1501 1502 1502 1502 1502 1503 1504 1504 1505 1506 1506 1507 1508 1509 1510 1510 1511 1512 1512 1512 1512 1512 1511
1485 1487 1487 1487 1488 1489 1489 1490 1490 1490 1491 1492 1493 1494 1495 1495 1496 1497 1498 1498 1499 1499 1500 1500 1501 1502 1502 1503 1503 1504 1505 1505 1506 1506 1507 1508 1509 1509 1510 1510 1510 1510 1510 1509
1485 1486 1486 1487 1487 1488 1489 1489 1489 1489 1489 1490 1491 1492 1493 1494 1495 1496 1496 1497 1497 1498 1499 1499 1500 1501 1501 1502 1502 1503 1504 1504 1505 1505 1505 1506 1506 1507 1507 1507 1507 1507 1507 1507
1485 1485 1486 1486 1486 1487 1487 1487 1487 1488 1488 1488 1490 1490 1491 1492 1493 1494 1495 1496 1496 1497 1498 1499 1499 1500 1500 1500 1501 1502 1502 1503 1504 1504 1504 1504 1504 1504 1504 1505 1505 1505 1505 1505
1485 1485 1485 1484 1484 1486 1486 1486 1486 1486 1487 1488 1489 1489 1490 1491 1492 1493 1494 1495 1495 1496 1497 1498 1498 1498 1499 1500 1500 1501 1501 1502 1502 1503 1503 1503 1503 1502 1502 1503 1503 1503 1503 1503
1484 1484 1484 1485 1485 1485 1485 1485 1485 1485 1486 1487 1488 1489 1489 1490 1491 1492 1493 1494 1494 1495 1496 1496 1497 1498 1499 1499 1500 1500 1501 1501 1502 1502 1502 1502 1502 1502 1501 1501 1501 1501 1501 1501
1484 1484 1484 1483 1483 1483 1483 1483 1484 1484 1486 1486 1487 1488 1489 1490 1491 1492 1492 1492 1493 1494 1495 1496 1496 1497 1498 1498 1499 1499 1500 1501 1501 1501 1501 1502 1502 1501 1501 1500 1500 1500 1500 1499
1484 1483 1483 1482 1482 1482 1482 1483 1483 1484 1485 1486 1487 1488 1489 1490 1491 1491 1492 1492 1493 1494 1495 1495 1496 1497 1497 1498 1498 1499 1499 1500 1500 1501 1501 1501 1501 1500 1500 1499 1499 1499 1499 1498
1484 1483 1483 1483 1482 1482 1483 1483 1484 1485 1486 1487 1488 1489 1490 1490 1491 1491 1492 1493 1494 1495 1495 1496 1496 1497 1497 1498 1499 1499 1499 1500 1500 1500 1500 1500 1500 1499 1499 1498 1498 1498 1498 1498
1485 1484 1484 1484 1484 1484 1484 1484 1485 1486 1487 1488 1489 1490 1491 1491 1492 1493 1494 1494 1495 1496 1496 1497 1497 1498 1498 1498 1499 1499 1499 1499 1500 1500 1500 1499 1499 1499 1498 1498 1498 1497 1497 1497